SCP
0 0 0 0 0 0 0 -0 -0 -0 -0 0 0 0 0 0 0 0 0 0 0 0
0 -0 -0 0 0 0 0 -0 0 0 0 0 0 0 0 0 0 1 0 0 0 0
0 0 0 1 0 0 0 0 0 0 0 0 0 0 0 0 0 1 1 0 0 0
0 0 0 0 0 0 0 0 1 0 0 0 0 0 0 0 -0 0 0 -0 0 0
0 0 0 0 0 0 0 0 0 0 0 0 0 0 0 0 -0 0 0 0 0 0
0 0 0 0 0 0 0 0 0 0 0 0 0 0 0 0 0 -0 -0 0 0 0
0 0 0 0 0 0 0 0 0 0 0 0 0 0 0 0 0 0 0 0 0 0
1 0 0 0 0 0 0 0 0 0 0 0 0 0 0 0 0 0 0 0 0 1
1 0 0 0 0 0 0 0 0 0 0 1 1 0 0 0 1 0 0 0 0 0
1 1 0 0 0 0 0 0 1 1 1 1 0 0 0 0 0 1 0 0 0 1
1 1 1 1 1 0 1 1 1 1 1 1 0 0 0 0 0 0 1 1 1 1
1 2 1 1 1 1 1 1 1 1 1 0 0 0 0 0 0 1 1 1 0 0
1 2 2 1 1 1 1 0 0 0 0 0 0 0 0 0 0 0 1 0 0 0
1 2 2 1 1 1 0 0 0 0 0 0 0 0 0 0 0 0 0 0 0 0
Wind_Speed_500mb
28 22 15 24 21 20 14 12 32 17 14 18 11 7 11 14 3 11 4 6 12 10
48 40 38 22 28 25 3 17 15 9 8 18 15 17 15 9 8 9 10 9 13 16
40 44 39 29 32 31 24 12 21 17 9 13 15 20 20 12 14 22 21 10 18 13
34 35 45 40 35 44 40 31 20 15 14 16 17 18 29 27 26 23 17 10 19 20
39 32 31 46 34 33 42 43 40 36 36 37 35 29 28 23 17 20 22 20 16 20
48 44 43 37 32 36 33 35 40 37 32 29 30 26 21 25 20 19 22 24 22 24
48 48 45 41 38 38 42 37 37 34 28 27 27 28 25 29 30 28 29 26 30 31
48 43 41 40 39 37 35 37 37 36 35 29 30 25 31 29 33 35 32 35 33 27
46 43 43 38 37 37 35 34 35 34 35 34 30 36 40 31 35 34 30 31 32 32
44 38 39 38 36 38 37 33 38 37 33 32 38 37 38 35 32 30 31 28 31 30
44 39 35 33 34 31 36 39 37 42 41 37 39 34 28 28 29 27 26 25 26 23
39 33 26 24 26 28 34 41 42 45 43 45 42 33 28 23 21 17 21 27 29 29
32 34 35 33 35 28 34 37 47 43 38 40 41 36 42 34 24 16 20 25 33 34
18 23 26 29 29 26 26 30 37 32 28 35 38 37 33 36 35 31 33 32 37 37
Wind_Direction_500mb
199 188 206 211 197 202 227 250 214 205 209 201 193 275 248 256 291 316 273 308 317 311
201 185 201 227 212 214 285 245 178 228 258 189 219 237 246 289 268 295 309 328 332 328
215 207 198 214 208 213 235 293 235 225 226 236 240 265 269 274 287 271 281 256 271 273
218 212 204 215 215 220 220 232 219 242 222 226 255 248 270 270 252 272 285 305 303 290
213 219 217 218 227 241 231 235 235 246 251 243 248 250 270 280 241 259 269 279 270 288
210 210 215 226 227 230 244 236 243 253 254 252 245 244 252 266 255 243 255 266 277 283
212 212 213 217 226 230 230 238 239 247 252 252 253 244 249 255 267 260 237 251 256 262
215 218 217 218 222 232 234 239 243 248 250 251 249 254 249 254 256 268 256 250 258 270
220 216 221 221 224 226 231 238 240 242 241 247 245 237 244 244 263 274 267 267 267 266
213 216 215 219 224 230 235 244 239 246 247 244 243 244 249 252 258 265 274 281 283 280
206 210 217 224 232 237 242 247 245 243 244 240 244 246 248 256 254 260 276 279 276 274
204 203 214 229 237 245 255 256 253 249 244 243 251 247 248 254 253 241 260 268 275 276
196 205 216 231 251 259 257 259 261 258 250 251 255 245 266 251 233 245 256 257 265 267
206 223 221 234 246 255 263 269 270 274 248 252 248 249 250 244 255 264 268 264 274 278
Wind_Speed_850mb
28 22 15 24 21 20 14 12 32 17 14 18 11 7 11 14 3 11 4 6 12 10
48 40 38 22 28 25 3 17 15 9 8 18 15 17 15 9 8 9 10 9 13 16
40 44 39 29 32 31 24 12 21 17 9 13 15 20 20 12 14 22 21 10 18 13
34 35 45 40 35 44 40 31 20 15 14 16 17 18 29 27 26 23 17 10 19 20
39 32 31 46 34 33 42 43 40 36 36 37 35 29 28 23 17 20 22 20 16 20
48 44 43 37 32 36 33 35 40 37 32 29 30 26 21 25 20 19 22 24 22 24
48 48 45 41 38 38 42 37 37 34 28 27 27 28 25 29 30 28 29 26 30 31
48 43 41 40 39 37 35 37 37 36 35 29 30 25 31 29 33 35 32 35 33 27
46 43 43 38 37 37 35 34 35 34 35 34 30 36 40 31 35 34 30 31 32 32
44 38 39 38 36 38 37 33 38 37 33 32 38 37 38 35 32 30 31 28 31 30
44 39 35 33 34 31 36 39 37 42 41 37 39 34 28 28 29 27 26 25 26 23
39 33 26 24 26 28 34 41 42 45 43 45 42 33 28 23 21 17 21 27 29 29
32 34 35 33 35 28 34 37 47 43 38 40 41 36 42 34 24 16 20 25 33 34
18 23 26 29 29 26 26 30 37 32 28 35 38 37 33 36 35 31 33 32 37 37
Wind_Direction_850mb
199 188 206 211 197 202 227 250 214 205 209 201 193 275 248 256 291 316 273 308 317 311
201 185 201 227 212 214 285 245 178 228 258 189 219 237 246 289 268 295 309 328 332 328
215 207 198 214 208 213 235 293 235 225 226 236 240 265 269 274 287 271 281 256 271 273
218 212 204 215 215 220 220 232 219 242 222 226 255 248 270 270 252 272 285 305 303 290
213 219 217 218 227 241 231 235 235 246 251 243 248 250 270 280 241 259 269 279 270 288
210 210 215 226 227 230 244 236 243 253 254 252 245 244 252 266 255 243 255 266 277 283
212 212 213 217 226 230 230 238 239 247 252 252 253 244 249 255 267 260 237 251 256 262
215 218 217 218 222 232 234 239 243 248 250 251 249 254 249 254 256 268 256 250 258 270
220 216 221 221 224 226 231 238 240 242 241 247 245 237 244 244 263 274 267 267 267 266
213 216 215 219 224 230 235 244 239 246 247 244 243 244 249 252 258 265 274 281 283 280
206 210 217 224 232 237 242 247 245 243 244 240 244 246 248 256 254 260 276 279 276 274
204 203 214 229 237 245 255 256 253 249 244 243 251 247 248 254 253 241 260 268 275 276
196 205 216 231 251 259 257 259 261 258 250 251 255 245 266 251 233 245 256 257 265 267
206 223 221 234 246 255 263 269 270 274 248 252 248 249 250 244 255 264 268 264 274 278